Truckee-Tahoe, CA

10:53 AM PDT on August 19, 2017 (GMT -0700)
Truckee-Tahoe

Weather History for KTRK - September, 2012

Change the Weather History Date:

Friday, September 28, 2012

  Actual Average Record
Temperature  
Mean Temperature 54 °F -  
Max Temperature 75 °F 70 °F 86 °F (2003)
Min Temperature 32 °F 33 °F 21 °F (1986)
Degree Days  
Heating Degree Days 12    
Growing Degree Days 4 (Base 50)    
Moisture  
Dew Point 29 °F    
Average Humidity 49    
Maximum Humidity 80    
Minimum Humidity 14    
Precipitation  
Precipitation 0.00 in - - ()
Sea Level Pressure  
Sea Level Pressure 30.21 in    
Wind  
Wind Speed 2 mph (South)    
Max Wind Speed 14 mph    
Max Gust Speed 20 mph    
Visibility 10 miles    
Events      
Averages and records for this station are not official NWS values.
T = Trace of Precipitation, MM = Missing Value Source: NWS Daily Summary

Daily Weather History Graph

Daily Weather History Graph

Search for Another Location

Airport or City:

Trip Planner

Search our weather history database for the weather conditions in past years. The results will help you decide how hot, cold, wet, or windy it might be!

Date:

Astronomy

Sep. 28, 2012 Rise Set
Actual Time 6:54 AM PDT 6:46 PM PDT
Civil Twilight 6:27 AM PDT 7:13 PM PDT
Nautical Twilight 5:56 AM PDT 7:44 PM PDT
Astronomical Twilight 5:24 AM PDT 8:16 PM PDT
Moon 5:51 PM PDT (9/28) 5:30 AM PDT (9/28)
Length of Visible Light 12h 46m
Length of Day
11h 52m
Waxing Gibbous, 98% of the Moon is Illuminated
Sep 28
Waxing Gibbous
Sep 29
Full
Oct 8
Last Quarter
Oct 15
New
Oct 21
First Quarter

Hourly Weather History & Observations

Time (PDT) Temp. Windchill Dew Point Humidity Pressure Visibility Wind Dir Wind Speed Gust Speed Precip Events Conditions
12:15 AM 44.6 °F - 28.4 °F 53% 30.22 in 10.0 mi Calm Calm - N/A   Clear
12:35 AM 44.6 °F - 28.4 °F 53% 30.22 in 10.0 mi Calm Calm - N/A   Clear
12:55 AM 44.6 °F - 30.2 °F 57% 30.22 in 10.0 mi Calm Calm - N/A   Clear
1:15 AM 42.8 °F - 30.2 °F 61% 30.22 in 10.0 mi Calm Calm - N/A   Clear
1:35 AM 41.0 °F 38.0 °F 30.2 °F 65% 30.22 in 10.0 mi SSE 4.6 mph - N/A   Clear
1:55 AM 39.2 °F - 28.4 °F 65% 30.23 in 10.0 mi Calm Calm - N/A   Clear
2:15 AM 41.0 °F - 28.4 °F 61% 30.23 in 10.0 mi Calm Calm - N/A   Clear
2:35 AM 41.0 °F 39.0 °F 28.4 °F 61% 30.22 in 10.0 mi ESE 3.5 mph - N/A   Clear
2:55 AM 35.6 °F 32.8 °F 26.6 °F 70% 30.22 in 10.0 mi South 3.5 mph - N/A   Clear
3:15 AM 37.4 °F - 28.4 °F 70% 30.22 in 10.0 mi Calm Calm - N/A   Clear
3:35 AM 39.2 °F - 28.4 °F 65% 30.21 in 10.0 mi Calm Calm - N/A   Clear
3:55 AM 39.2 °F - 28.4 °F 65% 30.21 in 10.0 mi Calm Calm - N/A   Clear
4:15 AM 37.4 °F - 28.4 °F 70% 30.22 in 10.0 mi Calm Calm - N/A   Clear
4:35 AM 35.6 °F 32.8 °F 26.6 °F 70% 30.22 in 10.0 mi ESE 3.5 mph - N/A   Clear
4:55 AM 33.8 °F 29.6 °F 26.6 °F 75% 30.21 in 10.0 mi WSW 4.6 mph - N/A   Clear
5:15 AM 35.6 °F - 26.6 °F 70% 30.22 in 10.0 mi Calm Calm - N/A   Clear
5:35 AM 35.6 °F - 26.6 °F 70% 30.22 in 10.0 mi Calm Calm - N/A   Clear
5:55 AM 33.8 °F - 26.6 °F 75% 30.22 in 10.0 mi Calm Calm - N/A   Clear
6:15 AM 35.6 °F - 26.6 °F 70% 30.23 in 10.0 mi Calm Calm - N/A   Clear
6:35 AM 33.8 °F 30.8 °F 26.6 °F 75% 30.23 in 10.0 mi South 3.5 mph - N/A   Clear
6:45 AM 32.0 °F - 26.6 °F 80% 30.23 in 10.0 mi Calm Calm - N/A   Clear
8:50 AM 44.6 °F - 26.6 °F 49% 30.25 in 10.0 mi Calm Calm - N/A   Clear
9:45 AM 51.8 °F - 30.2 °F 44% 30.25 in 10.0 mi Calm Calm - N/A   Clear
10:55 AM 62.6 °F - 32.0 °F 32% 30.24 in 10.0 mi Calm Calm - N/A   Partly Cloudy
11:50 AM 71.6 °F - 30.2 °F 22% 30.22 in 10.0 mi NNE 5.8 mph - N/A   Scattered Clouds
1:55 PM 75.2 °F - 26.6 °F 17% 30.19 in 10.0 mi ESE 9.2 mph - N/A   Scattered Clouds
2:55 PM 75.2 °F - 23.0 °F 14% 30.15 in 10.0 mi NNE 4.6 mph - N/A   Mostly Cloudy
4:55 PM 75.2 °F - 28.4 °F 18% 30.13 in 10.0 mi NW 4.6 mph - N/A   Mostly Cloudy
5:45 PM 73.4 °F - 32.0 °F 22% 30.13 in 10.0 mi West 11.5 mph 19.6 mph N/A   Mostly Cloudy
5:55 PM 73.4 °F - 32.0 °F 22% 30.14 in 10.0 mi West 13.8 mph 18.4 mph N/A   Clear
6:15 PM 71.6 °F - 32.0 °F 23% 30.14 in 10.0 mi West 8.1 mph 16.1 mph N/A   Clear
6:35 PM 69.8 °F - 32.0 °F 25% 30.15 in 10.0 mi WSW 9.2 mph - N/A   Clear
6:55 PM 68.0 °F - 32.0 °F 26% 30.17 in 10.0 mi WSW 8.1 mph - N/A   Partly Cloudy
7:15 PM 66.2 °F - 32.0 °F 28% 30.17 in 10.0 mi WSW 8.1 mph - N/A   Partly Cloudy
7:35 PM 64.4 °F - 32.0 °F 30% 30.18 in 10.0 mi SSW 3.5 mph - N/A   Clear
7:55 PM 60.8 °F - 32.0 °F 34% 30.19 in 10.0 mi ESE 4.6 mph - N/A   Clear
8:15 PM 59.0 °F - 32.0 °F 36% 30.20 in 10.0 mi East 5.8 mph - N/A   Clear
8:35 PM 57.2 °F - 32.0 °F 38% 30.21 in 10.0 mi SW 3.5 mph - N/A   Unknown
8:55 PM 55.4 °F - 30.2 °F 38% 30.22 in 10.0 mi ESE 4.6 mph - N/A   Unknown
9:15 PM 53.6 °F - 32.0 °F 44% 30.22 in 10.0 mi South 3.5 mph - N/A   Clear
9:35 PM 51.8 °F - 32.0 °F 47% 30.22 in 10.0 mi SSW 3.5 mph - N/A   Clear
9:55 PM 50.0 °F - 32.0 °F 50% 30.23 in 10.0 mi South 3.5 mph - N/A   Clear
10:15 PM 53.6 °F - 32.0 °F 44% 30.23 in 10.0 mi SE 3.5 mph - N/A   Clear
10:35 PM 50.0 °F - 30.2 °F 47% 30.24 in 10.0 mi Calm Calm - N/A   Clear
10:55 PM 51.8 °F - 32.0 °F 47% 30.24 in 10.0 mi Calm Calm - N/A   Clear
11:15 PM 48.2 °F - 30.2 °F 50% 30.25 in 10.0 mi ESE 3.5 mph - N/A   Clear
11:35 PM 46.4 °F - 30.2 °F 53% 30.25 in 10.0 mi Calm Calm - N/A   Clear
11:55 PM 46.4 °F - 32.0 °F 57% 30.26 in 10.0 mi Calm Calm - N/A   Clear